Погода в Поповой-Шапке

Северная Македония     42°00′49″N   20°53′01″E
темп.,
°C
ветер,
м/с
пор.,
м/с
влажн.,
%
обл.,
%
осадки,
мм/ч
давл.,
гПа
погр.,
м
14 августа, вс
вс1423:00+13зсз228530 1.1 101115
02:00+13зсз2287100 2.9 101115
05:00+13зсз1189100 3.3 101012
08:00+15в1185100 6.3 1010130
11:00+18в2271100 4.1 1009476
14:00+19ссв116395 7.6 1009525
17:00+20ссв115627 1.3 1008752
20:00+15ссз3277100 1.5 100922
15 августа, пн
пн1523:00+13сз328069 0.0 101023
02:00+13сз22800 0.0 101019
05:00+12зсз22790 0.0 101016
08:00+17сз11625 0.0 1010238
11:00+23вюв22444 0.0 10101301
14:00+26вюв333813 0.0 10081891
17:00+26в21397 0.0 10081329
20:00+20сз22556 0.0 100911
16 августа, вт
вт1623:00+18зсз32595 0.0 101121
02:00+17зсз32590 0.0 101220
05:00+16зсз32530 0.0 101221
08:00+21юз114311 0.0 1012202
11:00+26юв2334100 0.0 10121824
14:00+29юз2329100 0.0 10102858
17:00+28юз23310 0.0 10101949
20:00+20зсз33510 0.0 101222
17 августа, ср
ср1723:00+18зсз22560 0.0 101417
02:00+17зсз22580 0.0 101417
05:00+17зсз32570 0.0 101417
08:00+22св01460 0.0 1014220
11:00+27вюв22340 0.0 10131678
14:00+30в24270 0.0 10112673
17:00+30с23250 0.0 10112432
20:00+22сз32410 0.0 101319
18 августа, чт
чт1823:00+21зсз32450 0.0 101518
02:00+20зсз32480 0.0 101415
05:00+19зсз22470 0.0 101416
08:00+25ссв01380 0.0 1014196
11:00+30вюв23280 0.0 10131602
14:00+33ссв25210 0.0 10122660
17:00+32сз22220 0.0 10111930
20:00+25зсз32340 0.0 101216